Location: Foulognes
(49.1413°N, 0.8183°W)
Time: 23:44:38
(UTC+00:00)

Cosmos 1937 Rocket - Pass Details

Date: 21 October 2019
Orbit: 747 x 780 km, 74.0° (Epoch: 17 November)

Event Time Altitude Azimuth Distance (km) Brightness Sun altitude
Rises 19:31:32 0° 336° (NNW) 3,207 7.2 -25.0°
Reaches altitude 10° 19:33:55 10° 335° (NNW) 2,277 6.4 -25.4°
Maximum altitude 19:39:04 83° 248° (WSW) 760 3.4 -26.2°
Enters shadow 19:39:25 76° 190° (S) 774 3.4 -26.3°
